Location: La Junie
(44.7428°N, 2.1773°E)
Time: 11:18:12
(UTC+00:00)

PSLV R/B - Pass Details

Date: 15 May 2026
Orbit: 585 x 678 km, 97.9° (Epoch: 6 June)

Event Time Altitude Azimuth Distance (km) Brightness Sun altitude
Rises 23:11:29 0° 15° (NNE) 2,880 8.0 -25.7°
Reaches altitude 10° 23:13:39 10° 17° (NNE) 1,985 7.0 -25.7°
Enters shadow 23:17:19 59° 49° (NE) 724 3.9 -25.8°
